AirNav   Everest Fuels
 
 576 users online  

NH61 New Poverty Flats Airport
Chester, New Hampshire, USA

GOING TO CHESTER?


FAA INFORMATION EFFECTIVE 10 SEPTEMBER 2020

Location

FAA Identifier: NH61
Lat/Long: 42-58-02.9100N 071-10-52.2190W
42-58.048500N 071-10.870317W
42.9674750,-71.1811719
(estimated)
Elevation: 188 ft. / 57 m (estimated)
Variation: 16W (1985)
From city: 4 miles NE of CHESTER, NH
Time zone: UTC -4 (UTC -5 during Standard Time)
Zip code: 03036

Airport Operations

Airport use: Private use. Permission required prior to landing
Activation date: 01/1991
Control tower: no
ARTCC: BOSTON CENTER
FSS: BANGOR FLIGHT SERVICE STATION
Attendance: UNATNDD
Wind indicator: yes
Segmented circle: no
Lights: SS-SR

Airport Communications

WX ASOS at MHT (11 nm W): 119.55 (603-621-1766)
WX ASOS at LWM (15 nm S): PHONE 978-687-8017
WX AWOS-3PT at ASH (18 nm SW): 125.1 (603-578-0473)
WX ASOS at CON (20 nm NW): 132.325 (603-224-6558)

Nearby radio navigation aids

VOR radial/distance  VOR name  Freq  Var
MHTr069/10.2MANCHESTER VOR/DME114.4015W
LWMr359/14.1LAWRENCE VOR/DME112.5015W
PSMr261/16.8PEASE VOR/DME116.5016W
CONr146/23.0CONCORD VOR/DME112.9015W
ENEr239/37.0KENNEBUNK VOR/DME117.1017W
BOSr003/37.6BOSTON VOR/DME112.7016W

 
NDB name  Hdg/Dist  Freq  Var  ID
EPSOM143/15.021616WCO -.-. ---
ROLLINS242/21.726016WESG . ... --.

Airport Services

Runway Information

Runway 11/29

Dimensions: 1740 x 28 ft. / 530 x 9 m
Surface: turf
ROLLING SURFACE.
Runway edge lights: low intensity
Runway edge markings: MKD WITH ORANGE HOMER BUCKETS. WINGSPAN CLEARANCE ASSURED ONLY WHEN WHEELS REMAIN ON RWY SIDE OF EDGE MARKERS.
RUNWAY 11  RUNWAY 29
Traffic pattern: rightleft
Displaced threshold: 700 ft.no
Obstructions: 70 ft. trees, 1000 ft. from runway100 ft. trees, 50 ft. from runway

Airport Ownership and Management from official FAA records

Ownership: Privately-owned
Owner: MICHAEL H. HEATON
660 FREMONT RD.
CHESTER, NH 03036
Phone 603-887-3272
Manager: MICHAEL H. HEATON
660 FREMONT RD.
CHESTER, NH 03036
Phone 603-887-3272

Airport Operational Statistics

Aircraft based on the field: 2
Single engine airplanes: 2
    

Additional Remarks

PRIOR PERMISSION REQUIRED.
RY 11 IS UNUSABLE FOR LANDING DUE TO OBSTRUCTIONS AND OBSTRUCTED VIEW.
SEE WING CAMERA LANDING VIDEO AT HTTPS://DB.TT/HCGCEPPM.
TRANSIENT PARKING IS SOUTH SIDE OPPOSITE WINDSOCK, ALSO NORTH SIDE, EAST OF WINDSOCK.
FOR CD CTC BOSTON APCH AT 603-594-5551.

Instrument Procedures

There are no published instrument procedures at NH61.

Some nearby airports with instrument procedures:

KMHT - Manchester Airport (11 nm W)
KLWM - Lawrence Municipal Airport (15 nm S)
KPSM - Portsmouth International Airport at Pease (17 nm NE)
KASH - Boire Field Airport (18 nm SW)
KCON - Concord Municipal Airport (20 nm NW)
 
Loc | Ops | Rwys | IFR | FBO | Links
Com | Nav | Svcs | Stats | Notes
Area around NH61 (New Poverty Flats Airport)
 
Road maps at: MapQuest Bing Google
 
Aerial photo
WARNING: Photo may not be current or correct
Aerial photo of NH61 (New Poverty Flats Airport)
Photo by Mike Heaton
Photo taken 01-Jul-2016

Do you have a better or more recent aerial photo of New Poverty Flats Airport that you would like to share? If so, please send us your photo.

 
Sectional chart

 
Airport distance calculator
Flying to New Poverty Flats Airport? Find the distance to fly.

From to NH61

Sunrise and sunset
Times for 22-Sep-2020
 Local
(UTC-4)
 Zulu
(UTC)
Morning civil twilight06:0610:06
Sunrise06:3410:34
Sunset18:4022:40
Evening civil twilight19:0823:08

Current date and time
Zulu (UTC)  22-Sep-2020 05:31:02
Local (UTC-4)  22-Sep-2020 01:31:02
 
METAR
KMHT 
11nm W 
220453Z 35003KT 10SM CLR 06/01 A3035 RMK AO2 SLP290 T00610011 401940033
KLWM 
15nm S 
220454Z AUTO 00000KT 10SM CLR 04/03 A3036 RMK AO2 SLP282 T00390028 401720017
KPSM 
17nm E 
220456Z 31005KT 10SM CLR 04/01 A3033 RMK AO2A SLP274 T00440007 401680021
KASH 
19nm SW 
220456Z AUTO 30004KT 10SM CLR 02/01 A3036 RMK AO2 SLP286 T00220011 401831006
KCON 
20nm NW 
220451Z AUTO 00000KT 10SM CLR 02/M01 A3037 RMK AO2 SLP286 T00171011 401891028
KDAW 
22nm NE 
220451Z AUTO 34003KT 10SM CLR 02/M01 A3035 RMK AO2 SLP275 T00171011 401830000
TAF
KMHT 
11nm W 
211720Z 2118/2218 03007KT P6SM SKC FM220100 VRB03KT P6SM SKC FM221200 35006KT P6SM FEW250 FM221500 35012G20KT P6SM SCT250
KPSM 
17nm E 
211720Z 2118/2218 08008KT P6SM SKC FM212300 VRB04KT P6SM SKC FM221000 34007KT P6SM FEW250 FM221400 36014G22KT P6SM SCT250
KCON 
20nm NW 
211720Z 2118/2218 04005KT P6SM SKC FM220000 VRB03KT P6SM SKC FM221200 35006KT P6SM FEW250 FM221500 35012G20KT P6SM SCT250
NOTAMs
Click for the latest NOTAMs
NOTAMs are issued by the DoD/FAA and will open in a separate window not controlled by AirNav.

 

 
 

Would you like to see your business listed on this page?

 If your business provides an interesting product or service to pilots, flight crews, aircraft, or users of the New Poverty Flats Airport, you should consider listing it here.  To start the listing process, click on the button below
 
Add a business
 

Other Pages about New Poverty Flats Airport

Update a link
 
Copyright © AirNav, LLC. All rights reserved. Privacy Policy  Contact